This demonstration page uses our WeatherBlox Daily Observations layout. Learn more.

Left ArrowRight Arrow

40.92945, -100.16068

Hourly Observations for February 21, 2016

Temp ( °F °C ) Dew Point ( °F °C ) Humidity (%) Winds ( mph kmh ) Pressure ( in mb ) Visibility ( mi km ) Precip ( " mm )
12:15 am 00:15 Clear 48 9.1 34 0.9 57 57 WNW 17 28 30.09 1019 10 16.0934 N/A
12:35 am 00:35 Clear 44 6.9 34 1.1 67 67 NW 16 26 30.12 1020 10 16.0934 N/A
12:55 am 00:55 Clear 43 6.1 35 1.5 73 73 NW 16 26 30.15 1021 10 16.0934 N/A
1:15 am 01:15 Clear 40 4.7 34 1.3 79 79 NW 12 19 30.15 1021 10 16.0934 N/A
1:35 am 01:35 Clear 40 4.7 35 1.6 81 81 NW 13 20 30.15 1021 10 16.0934 N/A
1:55 am 01:55 Clear 41 4.8 35 1.4 79 79 NW 13 20 30.15 1021 10 16.0934 N/A
2:15 am 02:15 Clear 39 3.9 34 1 82 82 WNW 8 13 30.21 1023 10 16.0934 N/A
2:35 am 02:35 Clear 37 2.9 33 0.5 84 84 WNW 8 13 30.21 1023 10 16.0934 N/A
2:55 am 02:55 Clear 36 2.2 32 0.2 87 87 WNW 6 9 30.21 1023 10 16.0934 N/A
3:15 am 03:15 Clear 34 0.9 31 -0.6 90 90 WNW 8 13 30.24 1024 10 16.0934 N/A
3:35 am 03:35 Clear 33 0.5 31 -0.6 92 92 WNW 8 13 30.24 1024 10 16.0934 N/A
3:55 am 03:55 Clear 33 0.5 31 -0.6 92 92 WNW 8 13 30.27 1025 10 16.0934 N/A
4:15 am 04:15 Clear 34 1 32 -0.1 92 92 NW 5 7 30.27 1025 10 16.0934 N/A
4:35 am 04:35 Clear 34 1.3 32 undefined 91 91 NW 9 15 30.27 1025 10 16.0934 N/A
4:55 am 04:55 Clear 33 0.7 31 -0.5 92 92 WNW 7 11 30.27 1025 10 16.0934 N/A
5:15 am 05:15 Clear 32 undefined 30 -1.2 92 92 W 6 9 30.27 1025 10 16.0934 N/A
5:35 am 05:35 Clear 31 -0.3 29 -1.5 92 92 W 9 15 30.3 1026 10 16.0934 N/A
5:55 am 05:55 Clear 32 -0.2 30 -1.3 92 92 W 8 13 30.3 1026 10 16.0934 N/A
6:15 am 06:15 Clear 31 -0.5 29 -1.6 92 92 WNW 7 11 30.3 1026 10 16.0934 N/A
6:35 am 06:35 Clear 32 undefined 30 -1.2 92 92 WNW 8 13 30.3 1026 10 16.0934 N/A
6:55 am 06:55 Clear 32 undefined 29 -1.5 90 90 W 7 11 30.3 1026 10 16.0934 N/A
7:15 am 07:15 Clear 30 -1 28 -2.5 90 90 N N/A 30.33 1027 10 16.0934 N/A
7:35 am 07:35 Sunny 30 -1.3 27 -2.8 90 90 W 7 11 30.36 1028 10 16.0934 N/A
7:55 am 07:55 Sunny 32 undefined 29 -1.9 87 87 W 9 15 30.33 1027 10 16.0934 N/A
8:15 am 08:15 Sunny 34 1 29 -1.5 84 84 W 9 15 30.36 1028 10 16.0934 N/A
8:35 am 08:35 Sunny 35 1.9 30 -1 81 81 WNW 10 17 30.36 1028 10 16.0934 N/A
8:55 am 08:55 Sunny 37 2.5 31 -0.6 80 80 W 9 15 30.33 1027 10 16.0934 N/A
9:15 am 09:15 Sunny 39 4 31 -0.3 74 74 NW 10 17 30.33 1027 10 16.0934 N/A
9:35 am 09:35 Sunny 41 5 32 undefined 70 70 NNW 14 22 30.33 1027 10 16.0934 N/A
9:55 am 09:55 Sunny 43 6.2 32 -0.2 64 64 NNW 14 22 30.36 1028 10 16.0934 N/A
10:15 am 10:15 Sunny 44 6.9 31 -0.8 58 58 NNW 16 26 30.33 1027 10 16.0934 N/A
10:35 am 10:35 Sunny 46 7.5 31 -0.8 56 56 NNW 21 33 30.33 1027 10 16.0934 N/A
10:55 am 10:55 Sunny 46 8 31 -0.8 54 54 N 14 22 30.33 1027 10 16.0934 N/A
11:15 am 11:15 Sunny 47 8.5 30 -1.1 51 51 N 14 22 30.33 1027 10 16.0934 N/A
11:35 am 11:35 Sunny 47 8.5 29 -1.6 49 49 NNW 12 19 30.33 1027 10 16.0934 N/A
11:55 am 11:55 Sunny 48 9.1 30 -1 50 50 NW 13 20 30.33 1027 10 16.0934 N/A
12:15 pm 12:15 Sunny 49 9.2 29 -1.8 46 46 NNW 14 22 30.3 1026 10 16.0934 N/A
12:35 pm 12:35 Sunny 48 8.8 28 -2.2 46 46 NW 12 19 30.3 1026 10 16.0934 N/A
12:55 pm 12:55 Partly Cloudy 50 10 28 -2 43 43 NW 14 22 30.27 1025 10 16.0934 N/A
1:15 pm 13:15 Partly Cloudy 50 10.1 27 -2.9 40 40 NW 16 26 30.27 1025 10 16.0934 N/A
1:35 pm 13:35 Partly Cloudy 50 10.2 26 -3.2 39 39 NNW 14 22 30.24 1024 10 16.0934 N/A
1:55 pm 13:55 Sunny 50 10.1 27 -2.8 41 41 NNW 10 17 30.24 1024 10 16.0934 N/A
2:15 pm 14:15 Sunny 50 9.9 27 -2.9 41 41 N 15 24 30.24 1024 10 16.0934 N/A
2:35 pm 14:35 Sunny 51 10.6 27 -2.8 39 39 NNW 10 17 30.24 1024 10 16.0934 N/A
2:55 pm 14:55 Sunny 51 10.7 27 -2.8 39 39 NNW 17 28 30.21 1023 10 16.0934 N/A
3:15 pm 15:15 Sunny 51 10.7 26 -3.6 37 37 NNW 13 20 30.21 1023 10 16.0934 N/A
3:35 pm 15:35 Partly Cloudy 51 10.7 26 -3.4 37 37 NNW 8 13 30.21 1023 10 16.0934 N/A
3:55 pm 15:55 Partly Cloudy 51 10.6 26 -3.3 38 38 NNW 10 17 30.21 1023 10 16.0934 N/A
4:15 pm 16:15 Partly Cloudy 50 10.2 26 -3.3 39 39 N 7 11 30.21 1023 10 16.0934 N/A
4:35 pm 16:35 Sunny 51 10.4 29 -1.9 43 43 NNE 13 20 30.21 1023 10 16.0934 N/A
4:55 pm 16:55 Sunny 49 9.3 30 -1.2 48 48 NNE 13 20 30.21 1023 10 16.0934 N/A
5:15 pm 17:15 Sunny 48 8.8 30 -1 51 51 N 12 19 30.21 1023 10 16.0934 N/A
5:35 pm 17:35 Sunny 47 8.1 30 -1.3 52 52 NNE 9 15 30.24 1024 10 16.0934 N/A
5:55 pm 17:55 Sunny 46 7.5 31 -0.6 57 57 NNE 7 11 30.24 1024 10 16.0934 N/A
6:15 pm 18:15 Sunny 44 6.4 31 -0.7 61 61 NNE 6 9 30.24 1024 10 16.0934 N/A
6:35 pm 18:35 Clear 41 5 30 -0.9 66 66 NE 6 9 30.3 1026 10 16.0934 N/A
6:55 pm 18:55 Clear 41 4.9 31 -0.6 68 68 NE 9 15 30.3 1026 10 16.0934 N/A
7:15 pm 19:15 Clear 40 4.5 31 -0.5 70 70 ENE 7 11 30.3 1026 10 16.0934 N/A
7:35 pm 19:35 Clear 39 4.1 31 -0.5 72 72 NE 8 13 30.3 1026 10 16.0934 N/A
7:55 pm 19:55 Clear 39 3.8 31 -0.5 74 74 NE 6 9 30.3 1026 10 16.0934 N/A
8:15 pm 20:15 Clear 38 3.1 31 -0.5 77 77 E 3 6 30.3 1026 10 16.0934 N/A
8:35 pm 20:35 Clear 37 2.6 30 -0.9 78 78 NE 5 7 30.3 1026 10 16.0934 N/A
8:55 pm 20:55 Clear 34 1.1 29 -1.6 82 82 NE 6 9 30.33 1027 10 16.0934 N/A
9:15 pm 21:15 Clear 34 1 29 -1.5 84 84 ENE 6 9 30.33 1027 10 16.0934 N/A
9:35 pm 21:35 Clear 32 undefined 28 -2 87 87 E 5 7 30.33 1027 10 16.0934 N/A
9:55 pm 21:55 Clear 33 0.7 29 -1.8 84 84 N N/A 30.33 1027 10 16.0934 N/A
10:15 pm 22:15 Clear 32 undefined 27 -2.6 83 83 S 3 6 30.33 1027 10 16.0934 N/A
10:35 pm 22:35 Clear 32 -0.2 28 -2.4 85 85 N N/A 30.33 1027 10 16.0934 N/A
10:55 pm 22:55 Clear 30 -1.1 26 -3.1 86 86 N N/A 30.36 1028 10 16.0934 N/A
11:15 pm 23:15 Clear 29 -1.8 25 -3.7 87 87 N N/A 30.36 1028 10 16.0934 N/A
11:35 pm 23:35 Clear 28 -2.3 25 -4.1 88 88 N N/A 30.36 1028 10 16.0934 N/A
11:55 pm 23:55 Clear 29 -1.9 26 -3.6 88 88 N N/A 30.36 1028 10 16.0934 N/A

Powered by AerisWeather